Reno, NV

6:45 PM PDT on October 19, 2017 (GMT -0700)
Reno-Tahoe International

Weather History for KRNO - March, 2013

Change the Weather History Date:

Friday, March 1, 2013

  Actual Average Record
Temperature  
Mean Temperature 50 °F 43 °F  
Max Temperature 68 °F 55 °F 72 °F (1934)
Min Temperature 31 °F 31 °F 3 °F (1971)
Degree Days  
Heating Degree Days 15 22  
Month to date heating degree days 15 22  
Since 1 July heating degree days 3499 3660  
Cooling Degree Days 0 0  
Month to date cooling degree days 0 0  
Year to date cooling degree days 0 0  
Moisture  
Dew Point 28 °F    
Average Humidity 50    
Maximum Humidity 78    
Minimum Humidity 22    
Precipitation  
Precipitation 0.00 in 0.04 in 1.50 in (1902)
Month to date precipitation 0.00 0.04  
Year to date precipitation 0.12 2.09  
Snow  
Snow 0.00 in 0.10 in 14.40 in (1902)
Month to date snowfall 0.0 0.1  
Since 1 July snowfall 9.3 19.1  
Snow Depth 0.00 in    
Sea Level Pressure  
Sea Level Pressure 30.40 in    
Wind  
Wind Speed 2 mph (SE)    
Max Wind Speed 13 mph    
Max Gust Speed 15 mph    
Visibility 10 miles    
Events      
T = Trace of Precipitation, MM = Missing Value Source: NWS Daily Summary

Daily Weather History Graph

Daily Weather History Graph

Search for Another Location

Airport or City:

Trip Planner

Search our weather history database for the weather conditions in past years. The results will help you decide how hot, cold, wet, or windy it might be!

Date:

Astronomy

Mar. 01, 2013 Rise Set
Actual Time 6:31 AM PST 5:51 PM PST
Civil Twilight 6:04 AM PST 6:18 PM PST
Nautical Twilight 5:33 AM PST 6:49 PM PST
Astronomical Twilight 5:02 AM PST 7:21 PM PST
Moon 10:29 PM PST (3/1) 8:22 AM PST (3/1)
Length of Visible Light 12h 14m
Length of Day
11h 20m
Waning Gibbous, 82% of the Moon is Illuminated
Mar 1
Waning Gibbous
Mar 4
Last Quarter
Mar 11
New
Mar 19
First Quarter
Mar 27
Full

Hourly Weather History & Observations

Time (PST) Temp. Windchill Dew Point Humidity Pressure Visibility Wind Dir Wind Speed Gust Speed Precip Events Conditions
12:55 AM 41.0 °F - 30.2 °F 65% 30.50 in 10.0 mi Calm Calm - N/A   Clear
1:55 AM 39.0 °F 36.8 °F 28.9 °F 67% 30.46 in 10.0 mi NW 3.5 mph - N/A   Clear
2:55 AM 35.1 °F - 27.0 °F 72% 30.46 in 10.0 mi Calm Calm - N/A   Clear
3:55 AM 35.6 °F - 26.6 °F 70% 30.50 in 10.0 mi Calm Calm - N/A   Clear
4:55 AM 34.0 °F - 26.1 °F 73% 30.48 in 10.0 mi Calm Calm - N/A   Clear
5:55 AM 32.0 °F - 26.1 °F 79% 30.49 in 10.0 mi Calm Calm - N/A   Clear
6:55 AM 32.0 °F - 26.1 °F 79% 30.51 in 10.0 mi Calm Calm - N/A   Clear
7:55 AM 37.0 °F - 28.0 °F 70% 30.51 in 10.0 mi Calm Calm - N/A   Clear
8:55 AM 43.0 °F - 30.0 °F 60% 30.49 in 10.0 mi Calm Calm - N/A   Clear
9:55 AM 48.0 °F - 30.0 °F 50% 30.47 in 10.0 mi Calm Calm - N/A   Partly Cloudy
10:55 AM 54.0 °F - 30.9 °F 41% 30.42 in 10.0 mi Calm Calm - N/A   Partly Cloudy
11:55 AM 60.1 °F - 30.9 °F 33% 30.38 in 10.0 mi NE 5.8 mph - N/A   Partly Cloudy
12:55 PM 64.0 °F - 30.0 °F 28% 30.34 in 10.0 mi South 5.8 mph - N/A   Partly Cloudy
1:55 PM 64.9 °F - 28.0 °F 25% 30.31 in 10.0 mi ESE 5.8 mph - N/A   Partly Cloudy
2:55 PM 66.0 °F - 28.0 °F 24% 30.30 in 10.0 mi Calm Calm - N/A   Partly Cloudy
3:55 PM 66.9 °F - 26.1 °F 21% 30.29 in 10.0 mi SE 6.9 mph - N/A   Partly Cloudy
4:55 PM 64.9 °F - 26.1 °F 23% 30.29 in 10.0 mi East 8.1 mph - N/A   Scattered Clouds
5:55 PM 61.0 °F - 26.1 °F 26% 30.31 in 10.0 mi East 4.6 mph - N/A   Scattered Clouds
6:55 PM 59.0 °F - 27.0 °F 29% 30.34 in 10.0 mi SSE 4.6 mph - N/A   Scattered Clouds
7:55 PM 54.0 °F - 27.0 °F 35% 30.35 in 10.0 mi SE 3.5 mph - N/A   Scattered Clouds
8:55 PM 51.1 °F - 27.0 °F 39% 30.35 in 10.0 mi Calm Calm - N/A   Scattered Clouds
9:55 PM 50.0 °F - 27.0 °F 41% 30.35 in 10.0 mi WNW 5.8 mph - N/A   Scattered Clouds
10:55 PM 46.4 °F 44.3 °F 26.6 °F 46% 30.39 in 10.0 mi WNW 4.6 mph - N/A   Scattered Clouds
11:55 PM 43.0 °F - 26.1 °F 51% 30.32 in 10.0 mi Calm Calm - N/A   Scattered Clouds